Flag for China Weather past 2 weeks in Tianjin, Tianjin Municipality, China

Now
73 °F

Haze.


Feels Like: 77 °F
Forecast: 65 / 91 °F
Wind: 10 mph from Southwest

Location: Tianjin / Zhangguizhu

Current Time: May 24, 2015 at 1:08:39 AM

Latest Report: May 24, 2015 at 12:30 AM


Visibility: 3 mi

Pressure: 29.77 "Hg

Humidity: 44%

Dew point: 50 °F

Location of TianjinLocation

Historic Weather in Tianjin — Graph

°F

Tianjin temperature yesterday

Maximum temperature yesterday: 88 °F (at 2:30 PM)
Minimum temperature yesterday: 63 °F (at 5:00 AM)
Average temperature yesterday: 75 °F

Past Weeks' High & Low Weather Summary

 TemperatureHumidityPressure
High91 °F (May 13, 2:00 PM)100% (May 10, 5:00 PM)30.07 "Hg (May 10, 5:00 PM)
Low50 °F (May 10, 8:00 PM)10% (May 19, 12:00 PM)29.30 "Hg (May 13, 2:00 PM)
Average70 °F44%29.75 "Hg
* Reported May 8 11:00 PM — May 23 11:30 PM, Tianjin, Weather by CustomWeather, © 2015

Note: Actual official high and low records may vary slightly from our data, if they occured in-between our weather recording intervals... More about our weather records

Advertising

Tianjin weather history for previous 24 hours

 ConditionsComfort  
Time TempWeatherWind HumidityBarometerVisibility
11:30 PM
Sat, May 23
68 °FHaze.6 mph69%29.77 "Hg3 mi
11:00 PM70 °FClear.1 mph60%29.77 "Hg4 mi
10:30 PM72 °FClear.6 mph57%29.77 "Hg4 mi
10:00 PM72 °FClear.8 mph57%29.77 "Hg4 mi
9:30 PM70 °FClear.6 mph57%29.77 "Hg4 mi
9:00 PM72 °FClear.6 mph53%29.80 "Hg4 mi
8:30 PM72 °FHaze.6 mph53%29.77 "Hg3 mi
8:00 PM72 °FHaze.8 mph53%29.77 "Hg3 mi
7:30 PM73 °FClear.8 mph50%29.74 "Hg4 mi
7:00 PM75 °FClear.10 mph44%29.74 "Hg4 mi
6:30 PM77 °FClear.13 mph42%29.74 "Hg4 mi
6:00 PM79 °FClear.13 mph42%29.71 "Hg4 mi
5:30 PM81 °FClear.13 mph37%29.71 "Hg5 mi
5:00 PM82 °FClear.15 mph35%29.71 "Hg5 mi
4:30 PM84 °FSunny.15 mph33%29.71 "Hg10 mi
4:00 PM86 °FSunny.13 mph27%29.71 "Hg10 mi
3:30 PM88 °FPassing clouds.6 mph22%29.74 "HgN/A
3:00 PM88 °FPassing clouds.6 mph21%29.74 "HgN/A
2:30 PM88 °FPassing clouds.8 mph22%29.74 "HgN/A
1:30 PM86 °FPassing clouds.8 mph22%29.77 "HgN/A
1:00 PM86 °FPassing clouds.8 mph25%29.77 "HgN/A
12:30 PM86 °FPassing clouds.6 mph25%29.77 "HgN/A
12:00 PM84 °FSunny.3 mph29%29.80 "Hg10 mi
11:30 AM84 °FClear.3 mph29%29.80 "Hg5 mi
11:00 AM82 °FClear.1 mph32%29.80 "Hg4 mi
10:30 AM81 °FClear.6 mph34%29.80 "Hg4 mi
10:00 AM79 °FHaze.6 mph39%29.80 "Hg3 mi
9:30 AM77 °FHaze.6 mph42%29.80 "Hg3 mi
9:00 AM75 °FHaze.8 mph44%29.80 "Hg3 mi
8:30 AM73 °FHaze.8 mph47%29.80 "Hg2 mi
8:00 AM73 °FHaze.8 mph47%29.83 "Hg2 mi
7:30 AM72 °FHaze.6 mph50%29.83 "Hg2 mi
7:00 AM70 °FHaze.3 mph53%29.80 "Hg2 mi
6:30 AM68 °FHaze.1 mph56%29.80 "Hg2 mi
6:00 AM66 °FHaze.1 mph60%29.80 "Hg2 mi
5:30 AM64 °FHaze.3 mph64%29.80 "Hg2 mi
5:00 AM63 °FHaze.3 mph64%29.80 "Hg2 mi
4:30 AM64 °FHaze.1 mph60%29.80 "Hg3 mi
4:00 AM66 °FClear.No wind56%29.80 "Hg4 mi
3:30 AM68 °FClear.1 mph53%29.80 "Hg4 mi
3:00 AM68 °FClear.1 mph53%29.80 "Hg4 mi
2:30 AM68 °FClear.3 mph53%29.80 "Hg4 mi
2:00 AM68 °FClear.3 mph49%29.80 "Hg4 mi
1:30 AM68 °FClear.3 mph49%29.80 "Hg4 mi
1:00 AM68 °FClear.3 mph49%29.80 "Hg4 mi
Weather by CustomWeather, © 2015

See weather overviewHow to use our weather pages